DELTA 1 DEB, 3123

Orbit data source: Space-Track

DELTA 1 DEB, 3123 is space debris in SSO originally from a launch on Fri, 10 Nov 1967 UTC launched from the Air Force Western Test Range (AFWTR). Debris objects in space refer to the collection of defunct objects orbiting the Earth. Examples of debris include non-operational satellites, rocket bodies, and fragments generated from explosions, collisions, or faulty payload assembly.

Loading next visibility...
Identifier
3123, 1967-114D
Orbit
SSO
Country
Flag of USUS
Related business
Manufacturer
Unknown
Mission
Spacecraft
Bus & Motor
Unknown
Mass
Unknown
Launch date (UTC)
1967-11-10 (59 years ago)
Launch vehicle
Unknown
Launch site
Air Force Western Test Range (AFWTR)
Object type
Payload
Rocket body
Debris
Shape & HBR
Unknown shape, 0.1 m
Radar Cross Section
Medium (>0.1 m² and <1 m²)

Expand to show TLE details & history
Last TLE update: 21 hours ago

TLE from 21 hours ago
0 DELTA 1 DEB
1 03123U 67114D   26174.87653873 -.00000094  00000-0 -30829-3 0  9995
2 03123 102.4753 310.0634 0028143 248.2057 265.0402 12.48106922669595
Epoch: 2026-06-23T21:02Z
TLE epoch observation values (Epoch: 2026-06-23T21:02:12.946Z)
Latitude
26.42107°
Longitude
-91.25231°
Altitude
1,477.283 km
Speed
7.126 km/s
True Right ascension
09h 05m 22s
True Declination
26° 17' 49"
Sunlit
Object was in daylight at epoch
Visualization orbit readout
Latitude
Unknown
Longitude
Unknown
Altitude
Unknown
Speed
Unknown
Apparent Right ascension
Unknown
Apparent Declination
Unknown
Sunlit
N/A
Visualization observer readout
Local Sidereal Time
04:43:57
Azimuth
Unknown
Elevation
Unknown
Doppler factor
Unknown
Orbital elements
Apogee altitude
1,492.103 km
Perigee altitude
1,447.929 km
Semi-major axis
7,848.153 km
Eccentricity
0.00281
Inclination
102.4753°
RAAN
310.0634°
Arg. of periapsis
248.2057°
True anomaly
264.71901°
Mean anomaly
265.0402°
Eccentric anomaly
264.8796°
Mean motion
3.12171 °/min
Orbital period
115.32 mins
BSTAR
-0.00030829
Loading maneuver chart data...
Computing Atmospheric mass density...
Loading historical data...
Loading historical data...
Loading historical data...
Loading historical data...
Loading historical data...
Loading historical data...
Loading historical data...
Other satellites on launch #114 in the year 1967 (1967-11-10 UTC)

Documentation

Showing up to 5 results
|